Weather History for KBEA - January, 2013

Change the Weather History Date:

Monday, January 21, 2013

  Actual Average (KCRP) Record (KCRP)
Temperature  
Mean Temperature 62 °F 57 °F  
Max Temperature 75 °F 67 °F 88 °F (1999)
Min Temperature 48 °F 47 °F 22 °F (1985)
Degree Days  
Heating Degree Days 4 9  
Month to date heating degree days 189  
Since 1 July heating degree days 540  
Cooling Degree Days 0 1  
Month to date cooling degree days 21  
Year to date cooling degree days 21  
Growing Degree Days 12 (Base 50)    
Moisture  
Dew Point 49 °F    
Average Humidity 73    
Maximum Humidity 100    
Minimum Humidity 35    
Precipitation  
Precipitation 0.00 in 0.05 in 1.02 in (1980)
Month to date precipitation 1.04  
Year to date precipitation 1.04  
Snow  
Snow 0.00 in - - ()
Month to date snowfall  
Since 1 July snowfall  
Snow Depth -    
Sea Level Pressure  
Sea Level Pressure 30.17 in    
Wind  
Wind Speed 3 mph (ESE)    
Max Wind Speed 9 mph    
Max Gust Speed 16 mph    
Visibility 8 miles    
Events      
T = Trace of Precipitation, MM = Missing Value Source: NWS Daily Summary

Daily Weather History Graph

Daily Weather History Graph

Search for Another Location

Airport or City:

Trip Planner

Search our weather history database for the weather conditions in past years. The results will help you decide how hot, cold, wet, or windy it might be!

Date:

Astronomy

Jan. 21, 2013 Rise Set
Actual Time 7:23 AM CST 6:02 PM CST
Civil Twilight 6:58 AM CST 6:27 PM CST
Nautical Twilight 6:29 AM CST 6:55 PM CST
Astronomical Twilight 6:01 AM CST 7:24 PM CST
Moon 1:44 PM CST (1/21) 2:51 AM CST (1/21)
Length of Visible Light 11h 29m
Length of Day
10h 38m
Waxing Gibbous, 75% of the Moon is Illuminated
Jan 21
Waxing Gibbous
Jan 26
Full
Feb 3
Last Quarter
Feb 10
New
Feb 17
First Quarter

Hourly Weather History & Observations

Time (CST) Temp. Dew Point Humidity Pressure Visibility Wind Dir Wind Speed Gust Speed Precip Events Conditions
12:15 AM 53.6 °F 53.6 °F 100% 30.14 in 10.0 mi Calm Calm - N/A   Clear
12:35 AM 53.6 °F 51.8 °F 94% 30.15 in 10.0 mi Calm Calm - N/A   Clear
12:55 AM 51.8 °F 51.8 °F 100% 30.15 in 10.0 mi Calm Calm - N/A   Clear
1:15 AM 53.6 °F 51.8 °F 94% 30.15 in 10.0 mi Calm Calm - N/A   Clear
1:35 AM 53.6 °F 51.8 °F 94% 30.15 in 10.0 mi Calm Calm - N/A   Clear
1:55 AM 50.0 °F 50.0 °F 100% 30.14 in 10.0 mi Calm Calm - N/A   Clear
2:15 AM 51.8 °F 51.8 °F 100% 30.14 in 7.0 mi Calm Calm - N/A   Clear
2:35 AM 51.8 °F 51.8 °F 100% 30.13 in 10.0 mi Calm Calm - N/A   Clear
2:55 AM 50.0 °F 50.0 °F 100% 30.13 in 4.0 mi Calm Calm - N/A   Clear
3:15 AM 48.2 °F 48.2 °F 100% 30.13 in 10.0 mi Calm Calm - N/A   Clear
3:35 AM 50.0 °F 50.0 °F 100% 30.13 in 5.0 mi Calm Calm - N/A   Clear
3:55 AM 50.0 °F 50.0 °F 100% 30.13 in 3.0 mi East 3.5 mph - N/A   Clear
4:35 AM 50.0 °F 50.0 °F 100% 30.12 in 5.0 mi NE 3.5 mph - N/A   Clear
4:55 AM 50.0 °F 50.0 °F 100% 30.12 in 5.0 mi NE 3.5 mph - N/A   Clear
5:15 AM 50.0 °F 50.0 °F 100% 30.12 in 3.0 mi NE 3.5 mph - N/A   Clear
5:35 AM 48.2 °F 48.2 °F 100% 30.12 in 3.0 mi ENE 3.5 mph - N/A   Clear
5:55 AM 50.0 °F 50.0 °F 100% 30.12 in 2.5 mi ENE 3.5 mph - N/A   Clear
6:15 AM 50.0 °F 50.0 °F 100% 30.13 in 2.5 mi NE 3.5 mph - N/A   Clear
6:35 AM 50.0 °F 50.0 °F 100% 30.13 in 2.5 mi NNE 3.5 mph - N/A   Clear
7:15 AM 50.0 °F 50.0 °F 100% 30.14 in 4.0 mi NNE 3.5 mph - N/A   Clear
7:55 AM 50.0 °F 50.0 °F 100% 30.17 in 2.0 mi NNE 4.6 mph - N/A   Clear
8:15 AM 50.0 °F 50.0 °F 100% 30.18 in 1.5 mi NE 4.6 mph - N/A   Mist
8:35 AM 51.8 °F 51.8 °F 100% 30.19 in 2.5 mi NNE 5.8 mph - N/A   Clear
8:55 AM 51.8 °F 51.8 °F 100% 30.20 in 5.0 mi NNE 4.6 mph - N/A   Clear
9:15 AM 53.6 °F 53.6 °F 100% 30.21 in 7.0 mi NE 4.6 mph - N/A   Clear
9:35 AM 57.2 °F 55.4 °F 94% 30.21 in 10.0 mi NE 3.5 mph - N/A   Clear
10:15 AM 62.6 °F 55.4 °F 77% 30.23 in 10.0 mi Calm Calm - N/A   Clear
10:35 AM 64.4 °F 55.4 °F 73% 30.24 in 10.0 mi ESE 4.6 mph - N/A   Clear
10:55 AM 64.4 °F 55.4 °F 73% 30.24 in 10.0 mi East 5.8 mph - N/A   Clear
11:15 AM 66.2 °F 55.4 °F 68% 30.24 in 10.0 mi East 4.6 mph - N/A   Clear
11:35 AM 68.0 °F 55.4 °F 64% 30.24 in 10.0 mi East 5.8 mph - N/A   Clear
11:55 AM 69.8 °F 53.6 °F 56% 30.23 in 10.0 mi Calm Calm - N/A   Clear
12:35 PM 71.6 °F 51.8 °F 50% 30.20 in 10.0 mi ESE 6.9 mph - N/A   Clear
12:55 PM 71.6 °F 51.8 °F 50% 30.19 in 10.0 mi SE 3.5 mph - N/A   Clear
1:15 PM 73.4 °F 51.8 °F 47% 30.18 in 10.0 mi SSE 8.1 mph - N/A   Clear
1:35 PM 73.4 °F 51.8 °F 47% 30.17 in 10.0 mi SE 4.6 mph - N/A   Clear
1:55 PM 73.4 °F 50.0 °F 44% 30.16 in 10.0 mi East 6.9 mph - N/A   Scattered Clouds
2:15 PM 73.4 °F 50.0 °F 44% 30.16 in 10.0 mi East 8.1 mph - N/A   Scattered Clouds
2:35 PM 75.2 °F 48.2 °F 38% 30.15 in 10.0 mi East 9.2 mph - N/A   Scattered Clouds
2:55 PM 73.4 °F 46.4 °F 38% 30.15 in 10.0 mi SE 5.8 mph 16.1 mph N/A   Scattered Clouds
3:15 PM 73.4 °F 46.4 °F 38% 30.15 in 10.0 mi South 3.5 mph - N/A   Scattered Clouds
3:35 PM 73.4 °F 44.6 °F 36% 30.14 in 10.0 mi East 6.9 mph - N/A   Scattered Clouds
3:55 PM 73.4 °F 44.6 °F 36% 30.14 in 10.0 mi SSE 9.2 mph - N/A   Clear
4:15 PM 73.4 °F 44.6 °F 36% 30.14 in 10.0 mi SSE 6.9 mph - N/A   Clear
4:35 PM 73.4 °F 44.6 °F 36% 30.14 in 10.0 mi ESE 4.6 mph - N/A   Clear
4:55 PM 71.6 °F 42.8 °F 35% 30.15 in 10.0 mi SE 6.9 mph - N/A   Clear
5:15 PM 71.6 °F 44.6 °F 38% 30.15 in 10.0 mi SE 8.1 mph - N/A   Clear
5:35 PM 69.8 °F 46.4 °F 43% 30.15 in 10.0 mi SSE 6.9 mph - N/A   Clear
5:55 PM 68.0 °F 44.6 °F 43% 30.15 in 10.0 mi SSE 9.2 mph - N/A   Clear
6:15 PM 64.4 °F 46.4 °F 52% 30.16 in 10.0 mi SE 5.8 mph - N/A   Clear
6:35 PM 62.6 °F 46.4 °F 55% 30.16 in 10.0 mi SE 8.1 mph - N/A   Clear
6:55 PM 62.6 °F 46.4 °F 55% 30.17 in 10.0 mi SE 8.1 mph - N/A   Clear
7:15 PM 62.6 °F 44.6 °F 52% 30.17 in 10.0 mi SE 6.9 mph - N/A   Clear
7:35 PM 59.0 °F 44.6 °F 59% 30.17 in 10.0 mi SE 5.8 mph - N/A   Clear
8:15 PM 57.2 °F 44.6 °F 63% 30.19 in 10.0 mi SE 5.8 mph - N/A   Clear
8:35 PM 55.4 °F 44.6 °F 67% 30.19 in 10.0 mi SE 4.6 mph - N/A   Clear
8:55 PM 55.4 °F 44.6 °F 67% 30.19 in 10.0 mi SE 4.6 mph - N/A   Clear
9:15 PM 55.4 °F 46.4 °F 72% 30.19 in 10.0 mi SE 4.6 mph - N/A   Clear
9:35 PM 55.4 °F 46.4 °F 72% 30.19 in 10.0 mi ESE 4.6 mph - N/A   Clear
9:55 PM 53.6 °F 46.4 °F 77% 30.20 in 10.0 mi ESE 3.5 mph - N/A   Clear
10:15 PM 53.6 °F 46.4 °F 77% 30.20 in 10.0 mi ESE 4.6 mph - N/A   Clear
10:35 PM 53.6 °F 46.4 °F 77% 30.20 in 10.0 mi ESE 3.5 mph - N/A   Clear
11:15 PM 53.6 °F 48.2 °F 82% 30.20 in 10.0 mi SE 3.5 mph - N/A   Clear
11:35 PM 51.8 °F 48.2 °F 88% 30.20 in 10.0 mi Calm Calm - N/A   Clear